Location: *
(50.9167°S, 179.4000°W)
Time: 21:38:40
(UTC+00:00)

Cosmos 2285 Rocket - Pass Details

Date: 03 March 2024
Orbit: 971 x 998 km, 74.0° (Epoch: 16 April)

Event Time Altitude Azimuth Distance (km) Brightness Sun altitude
Exits shadow 15:13:42 34° 292° (WNW) 1,571 4.6 -20.3°
Maximum altitude 15:16:09 51° 237° (WSW) 1,238 4.4 -20.0°
Drops below altitude 10° 15:22:27 10° 162° (SSE) 2,788 7.2 -19.2°
Sets 15:25:08 0° 156° (SSE) 3,746 8.1 -18.9°
